Corinth, MS

8:08 PM CST on February 09, 2016 (GMT -0600)
Turner

Weather History for KCRX - May, 2014

Change the Weather History Date:

Wednesday, May 7, 2014

  Actual Average (KTUP) Record (KTUP)
Temperature  
Mean Temperature 70 °F 68 °F  
Max Temperature 82 °F 80 °F 93 °F (1952)
Min Temperature 57 °F 57 °F 39 °F (1958)
Degree Days  
Heating Degree Days 0 1  
Month to date heating degree days 11  
Since 1 July heating degree days 2943  
Cooling Degree Days 4 4  
Month to date cooling degree days 27  
Year to date cooling degree days 103  
Growing Degree Days 20 (Base 50)    
Moisture  
Dew Point 57 °F    
Average Humidity 65    
Maximum Humidity 88    
Minimum Humidity 42    
Precipitation  
Precipitation 0.00 in 0.19 in 4.77 in (1978)
Month to date precipitation 1.32  
Year to date precipitation 20.36  
Snow  
Snow 0.00 in 0.00 in - ()
Month to date snowfall 0.0  
Since 1 July snowfall 2.1  
Snow Depth -    
Sea Level Pressure  
Sea Level Pressure 30.00 in    
Wind  
Wind Speed 8 mph (South)    
Max Wind Speed 16 mph    
Max Gust Speed 26 mph    
Visibility 10 miles    
Events      
T = Trace of Precipitation, MM = Missing Value Source: NWS Daily Summary

Daily Weather History Graph

Daily Weather History Graph

Search for Another Location

Airport or City:

Trip Planner

Search our weather history database for the weather conditions in past years. The results will help you decide how hot, cold, wet, or windy it might be!

Date:

Astronomy

May. 07, 2014 Rise Set
Actual Time 5:57 AM CDT 7:44 PM CDT
Civil Twilight 5:30 AM CDT 8:12 PM CDT
Nautical Twilight 4:57 AM CDT 8:45 PM CDT
Astronomical Twilight 4:22 AM CDT 9:20 PM CDT
Moon 1:05 PM CDT (5/7) 1:40 AM CDT (5/7)
Length of Visible Light 14h 41m
Length of Day
13h 46m
First Quarter, 55% of the Moon is Illuminated
May 7
First Quarter
May 14
Full
May 21
Last Quarter
May 28
New
Jun 5
First Quarter

Hourly Weather History & Observations

Time (CDT) Temp. Heat Index Dew Point Humidity Pressure Visibility Wind Dir Wind Speed Gust Speed Precip Events Conditions
12:10 AM 59.0 °F - 53.6 °F 82% 29.93 in 10.0 mi SE 4.6 mph - N/A   Clear
12:30 AM 60.8 °F - 53.6 °F 77% 29.94 in 10.0 mi SE 4.6 mph - N/A   Clear
1:10 AM 59.0 °F - 53.6 °F 82% 29.93 in 10.0 mi SE 4.6 mph - N/A   Clear
1:30 AM 59.0 °F - 53.6 °F 82% 29.93 in 10.0 mi SE 4.6 mph - N/A   Clear
1:50 AM 59.0 °F - 53.6 °F 82% 29.93 in 10.0 mi SSE 5.8 mph - N/A   Clear
2:10 AM 59.0 °F - 53.6 °F 82% 29.93 in 10.0 mi SE 5.8 mph - N/A   Clear
2:30 AM 57.2 °F - 53.6 °F 88% 29.93 in 10.0 mi SSE 5.8 mph - N/A   Clear
2:50 AM 57.2 °F - 53.6 °F 88% 29.94 in 10.0 mi SE 5.8 mph - N/A   Clear
3:10 AM 57.2 °F - 53.6 °F 88% 29.94 in 10.0 mi SSE 5.8 mph - N/A   Clear
3:30 AM 59.0 °F - 53.6 °F 82% 29.94 in 10.0 mi SSE 5.8 mph - N/A   Clear
3:50 AM 57.2 °F - 53.6 °F 88% 29.95 in 10.0 mi SSE 5.8 mph - N/A   Clear
4:10 AM 59.0 °F - 53.6 °F 82% 29.95 in 10.0 mi SSE 6.9 mph - N/A   Clear
4:30 AM 59.0 °F - 55.4 °F 88% 29.95 in 10.0 mi SSE 5.8 mph - N/A   Clear
4:50 AM 59.0 °F - 55.4 °F 88% 29.95 in 10.0 mi South 5.8 mph - N/A   Clear
5:10 AM 59.0 °F - 55.4 °F 88% 29.96 in 10.0 mi SSE 6.9 mph - N/A   Clear
5:30 AM 59.0 °F - 55.4 °F 88% 29.96 in 10.0 mi SSE 8.1 mph - N/A   Clear
5:50 AM 59.0 °F - 55.4 °F 88% 29.98 in 10.0 mi SSE 6.9 mph - N/A   Clear
6:10 AM 59.0 °F - 55.4 °F 88% 29.99 in 10.0 mi South 6.9 mph - N/A   Clear
6:30 AM 60.8 °F - 55.4 °F 82% 30.00 in 10.0 mi South 6.9 mph - N/A   Clear
6:50 AM 62.6 °F - 57.2 °F 82% 30.01 in 10.0 mi South 6.9 mph - N/A   Clear
7:10 AM 62.6 °F - 57.2 °F 82% 30.02 in 10.0 mi South 4.6 mph - N/A   Clear
7:30 AM 64.4 °F - 57.2 °F 77% 30.03 in 10.0 mi SSW 4.6 mph - N/A   Clear
7:50 AM 66.2 °F - 57.2 °F 73% 30.03 in 10.0 mi SSW 6.9 mph - N/A   Clear
8:10 AM 68.0 °F - 57.2 °F 68% 30.04 in 10.0 mi SW 8.1 mph 17.3 mph N/A   Clear
8:30 AM 69.8 °F - 57.2 °F 64% 30.05 in 10.0 mi SW 10.4 mph 17.3 mph N/A   Clear
8:50 AM 71.6 °F - 59.0 °F 64% 30.05 in 10.0 mi SW 8.1 mph 16.1 mph N/A   Clear
9:10 AM 71.6 °F - 57.2 °F 60% 30.05 in 10.0 mi WSW 12.7 mph 19.6 mph N/A   Clear
9:30 AM 73.4 °F - 57.2 °F 57% 30.05 in 10.0 mi SW 11.5 mph 18.4 mph N/A   Clear
9:50 AM 73.4 °F - 57.2 °F 57% 30.05 in 10.0 mi WSW 13.8 mph 19.6 mph N/A   Clear
10:10 AM 73.4 °F - 57.2 °F 57% 30.05 in 10.0 mi SSW 16.1 mph 26.5 mph N/A   Partly Cloudy
10:50 AM 73.4 °F - 57.2 °F 57% 30.05 in 10.0 mi WSW 13.8 mph 23.0 mph N/A   Scattered Clouds
11:10 AM 75.2 °F - 59.0 °F 57% 30.05 in 10.0 mi SSW 11.5 mph 21.9 mph N/A   Partly Cloudy
11:30 AM 77.0 °F - 57.2 °F 50% 30.05 in 10.0 mi SSW 16.1 mph 24.2 mph N/A   Clear
11:50 AM 77.0 °F - 57.2 °F 50% 30.04 in 10.0 mi South 12.7 mph 23.0 mph N/A   Partly Cloudy
12:10 PM 77.0 °F - 57.2 °F 50% 30.04 in 10.0 mi SSW 12.7 mph 20.7 mph N/A   Clear
12:30 PM 77.0 °F - 57.2 °F 50% 30.03 in 10.0 mi SW 15.0 mph 20.7 mph N/A   Clear
12:50 PM 78.8 °F - 57.2 °F 47% 30.03 in 10.0 mi South 8.1 mph 21.9 mph N/A   Clear
1:10 PM 80.6 °F 80.8 °F 57.2 °F 45% 30.02 in 10.0 mi SSW 12.7 mph - N/A   Clear
1:30 PM 80.6 °F 80.8 °F 57.2 °F 45% 30.02 in 10.0 mi South 15.0 mph - N/A   Clear
1:50 PM 80.6 °F 80.8 °F 57.2 °F 45% 30.02 in 10.0 mi SSW 12.7 mph 20.7 mph N/A   Clear
2:10 PM 80.6 °F 80.8 °F 57.2 °F 45% 30.02 in 10.0 mi South 12.7 mph 20.7 mph N/A   Clear
2:30 PM 80.6 °F 80.8 °F 57.2 °F 45% 30.01 in 10.0 mi South 13.8 mph 23.0 mph N/A   Clear
2:50 PM 82.4 °F 82.0 °F 57.2 °F 42% 30.01 in 10.0 mi South 15.0 mph 19.6 mph N/A   Clear
3:10 PM 82.4 °F 82.0 °F 57.2 °F 42% 30.01 in 10.0 mi South 13.8 mph 21.9 mph N/A   Clear
3:30 PM 82.4 °F 82.0 °F 57.2 °F 42% 30.00 in 10.0 mi South 16.1 mph - N/A   Clear
3:50 PM 82.4 °F 82.0 °F 57.2 °F 42% 29.99 in 10.0 mi South 15.0 mph 21.9 mph N/A   Clear
4:10 PM 82.4 °F 82.0 °F 57.2 °F 42% 29.99 in 10.0 mi South 9.2 mph 19.6 mph N/A   Clear
4:30 PM 82.4 °F 82.0 °F 57.2 °F 42% 29.99 in 10.0 mi South 16.1 mph 21.9 mph N/A   Clear
4:50 PM 82.4 °F 82.0 °F 57.2 °F 42% 29.99 in 10.0 mi South 11.5 mph 19.6 mph N/A   Clear
5:10 PM 82.4 °F 82.0 °F 57.2 °F 42% 29.99 in 10.0 mi South 11.5 mph 21.9 mph N/A   Clear
5:30 PM 80.6 °F 80.8 °F 57.2 °F 45% 29.99 in 10.0 mi South 15.0 mph 19.6 mph N/A   Clear
5:50 PM 80.6 °F 80.8 °F 57.2 °F 45% 29.98 in 10.0 mi South 13.8 mph 21.9 mph N/A   Clear
6:10 PM 80.6 °F 80.8 °F 57.2 °F 45% 29.99 in 10.0 mi South 10.4 mph 17.3 mph N/A   Clear
6:30 PM 80.6 °F 80.8 °F 57.2 °F 45% 29.99 in 10.0 mi South 11.5 mph 17.3 mph N/A   Clear
6:50 PM 78.8 °F - 57.2 °F 47% 29.98 in 10.0 mi South 11.5 mph 17.3 mph N/A   Clear
7:10 PM 77.0 °F - 59.0 °F 54% 29.99 in 10.0 mi South 8.1 mph - N/A   Clear
7:30 PM 75.2 °F - 59.0 °F 57% 29.99 in 10.0 mi South 8.1 mph - N/A   Clear
7:50 PM 73.4 °F - 59.0 °F 61% 29.99 in 10.0 mi South 6.9 mph - N/A   Clear
8:10 PM 73.4 °F - 59.0 °F 61% 30.00 in 10.0 mi SSE 6.9 mph - N/A   Clear
8:30 PM 71.6 °F - 59.0 °F 64% 30.00 in 10.0 mi SSE 5.8 mph - N/A   Clear
8:50 PM 71.6 °F - 59.0 °F 64% 30.00 in 10.0 mi SSE 5.8 mph - N/A   Clear
9:10 PM 71.6 °F - 59.0 °F 64% 30.00 in 10.0 mi SSE 5.8 mph - N/A   Clear
9:30 PM 69.8 °F - 59.0 °F 68% 30.01 in 10.0 mi SSE 4.6 mph - N/A   Clear
9:50 PM 68.0 °F - 59.0 °F 73% 30.02 in 10.0 mi SE 3.5 mph - N/A   Clear
10:10 PM 68.0 °F - 59.0 °F 73% 30.02 in 10.0 mi SE 3.5 mph - N/A   Clear
10:30 PM 68.0 °F - 59.0 °F 73% 30.02 in 10.0 mi SE 3.5 mph - N/A   Clear
10:50 PM 66.2 °F - 59.0 °F 78% 30.01 in 10.0 mi SSE 3.5 mph - N/A   Clear
11:10 PM 66.2 °F - 59.0 °F 78% 30.02 in 10.0 mi SE 3.5 mph - N/A   Clear
11:30 PM 66.2 °F - 59.0 °F 78% 30.02 in 10.0 mi SSE 4.6 mph - N/A   Clear
11:50 PM 68.0 °F - 59.0 °F 73% 30.02 in 10.0 mi SSE 4.6 mph - N/A   Clear